Regional Weather Roundup
Issued by NWS Little Rock, AR

Home | Current Version | Previous Version | Text Only | Print | Product List | Glossary On
Versions: 1 2 3 4 5 6 7 8 9 10 11 12 13 14 15 16 17 18 19 20 21 22 23 24 25 26 27 28 29 30 31 32 33 34 35 36 37 38 39 40 41 42 43 44 45 46 47 48 49 50
000
ASUS44 KLZK 271305
RWRLZK

WEATHER ROUNDUP FOR ARKANSAS
NATIONAL WEATHER SERVICE LITTLE ROCK AR
800 AM CDT MON MAR 27 2017

NOTE: "FAIR" INDICATES FEW OR NO CLOUDS BELOW 12,000 FEET WITH NO
SIGNIFICANT WEATHER AND/OR OBSTRUCTIONS TO VISIBILITY.

ARZ001-003-010-029-271400-
NORTHWEST ARKANSAS

CITY           SKY/WX    TMP DP  RH WIND       PRES   REMARKS
FAYETTEVILLE   CLOUDY    56  56 100 CALM      29.80R
FORT SMITH     CLOUDY    60  55  83 E3        29.77R
HARRISON       LGT RAIN  54  54 100 E5        29.81R
BENTONVILLE    CLOUDY    55  54  94 SE5       29.80R
ROGERS         CLOUDY    55  54  96 SE8       29.80R
SILOAM SPGS    CLOUDY    55  52  88 E7        29.79R
HIGHFILL       CLOUDY    56  55  97 E3        29.79R
SPRINGDALE     CLOUDY    55  55 100 E7        29.81R
$$

ARZ004-005-016-271400-
NORTH CENTRAL ARKANSAS

CITY           SKY/WX    TMP DP  RH WIND       PRES   REMARKS
BATESVILLE     CLOUDY    57  55  94 S3        29.86R
FLIPPIN        CLOUDY    55  48  76 SE8       29.80S
MTN HOME       LGT RAIN  55  54  96 S8        29.82F
$$

ARZ040-041-271400-
WEST CENTRAL ARKANSAS

CITY           SKY/WX    TMP DP  RH WIND       PRES   REMARKS
MENA           CLOUDY    66  64  94 S9        29.81R
MOUNT IDA      MOCLDY    64  60  87 VRB6      29.79R
$$

ARZ009-017-025-026-028-271400-
NORTHEAST ARKANSAS

CITY           SKY/WX    TMP DP  RH WIND       PRES   REMARKS
CORNING        FAIR      57  57 100 SW7       29.86R
JONESBORO      CLOUDY    59  56  89 S6        29.86R
NEWPORT        CLOUDY    58  56  93 MISG        N/A
WALNUT RIDGE   CLOUDY    57  54  88 SW6       29.86R
BLYTHEVILLE    CLOUDY    61  56  83 S8        29.87S
NW BLYTHEVILLE CLOUDY    41  25  52 SW9       29.86
$$

ARZ022-023-033-042-044-271400-
CENTRAL ARKANSAS

CITY           SKY/WX    TMP DP  RH WIND       PRES   REMARKS
LITTLE ROCK    PTSUNNY   57  57 100 S12       29.83F
N LITTLE ROCK    N/A     58  55  89 S6        29.83F
JACKSONVILLE   PTSUNNY   58  57  96 SE6       29.83F
CONWAY           N/A     61  57  88 S12       29.80S
SEARCY         CLOUDY    58  58 100 S5        29.87
HOT SPRINGS    PTSUNNY   63  61  93 S8        29.83F
RUSSELLVILLE   CLOUDY    59  56  89 N6        29.80R
CLINTON        CLOUDY    57  57 100 CALM      29.83S
$$

ARZ036-271400-
EAST ARKANSAS

CITY           SKY/WX    TMP DP  RH WIND       PRES   REMARKS
WEST MEMPHIS   CLOUDY    61  58  90 CALM      29.87F
$$

ARZ050-053-066-070-073-271400-
SOUTHWEST ARKANSAS

CITY           SKY/WX    TMP DP  RH WIND       PRES   REMARKS
ARKADELPHIA    LGT RAIN  59  58  96 CALM      29.85F
CAMDEN         PTSUNNY   66  63  88 SE5       29.87R
TEXARKANA      CLOUDY    67  63  87 S13       29.84R
EL DORADO      CLOUDY    67  65  93 SE5       29.87R
DE QUEEN       CLOUDY    63  63 100 CALM      29.80S FOG
$$

ARZ056-057-069-271400-
SOUTHEAST ARKANSAS

CITY           SKY/WX    TMP DP  RH WIND       PRES   REMARKS
PINE BLUFF     PTSUNNY   63  59  87 S8        29.87S
STUTTGART      SUNNY     59  50  72 SE8       29.87S
MONTICELLO       N/A    N/A N/A N/A MISG      29.89S

$$





USA.gov is the U.S. government's official web portal to all federal, state and local government web resources and services.